Torna al catalogo

STARLINK-36991

AttivoComunicazioniVLEO
NORAD 68011·PAYLOAD·🇺🇸 United States

Lanciato Feb 27, 2026 da Vandenberg Space Force Base

Loading…

Prossimi Passaggi (prossime 24 ore)

TLE

AggiornatoSource: CelesTrak SupGP

Epoca: Sep 14, 2026, 20:54 UTC

1 68011C 26039AB  26257.87131944  .00043289  00000+0  15683-2 0  2572
2 68011  43.0041  60.3213 0001482 274.1351 275.1425 15.27549476    10

Traccia STARLINK-36991 in tempo reale con AllMySat

Download on the App Store